Location: Baia Mare
(47.6567°N, 23.5850°E)
Time: 22:59:52
(UTC+03:00)

ISS - Pass Details

Date: 20 September 2019
Orbit: 411 x 421 km, 51.6° (Epoch: 19 September)

Event Time Altitude Azimuth Distance (km) Brightness Sun altitude
Rises 20:47:53 0° 219° (SW) 2,332 0.3 -14.0°
Reaches altitude 10° 20:50:05 10° 209° (SSW) 1,474 -0.9 -14.3°
Maximum altitude 20:53:05 32° 144° (SE) 726 -3.0 -14.8°
Enters shadow 20:53:26 31° 130° (SE) 742 -3.0 -14.9°
